マクノート彗星

508P/McNaught (2012)

English version
Home page
Updated on August 27, 2025

---------------------------------------------------------------------

・ プロフィール

・ 軌道要素

                    Epoch = 2012 Feb.  3.0 TT
     T = 2012 Jan. 15.62862 TT        Peri. = 338.97385
     e = 0.5698093                    Node  = 268.80462 2000.0
     q = 1.5370531 AU                 Incl. =  31.73397
       a =  3.5729579 AU   n = 0.14593593   P =   6.75 years

・ 光度変化

        m1 = 15.7 + 5 logΔ + 15.0 log r

---------------------------------------------------------------------

軌道要素は、CBET 5592に掲載されたものです。
光度グラフはComet for Windowsで作成したものです。

---------------------------------------------------------------------

Copyright(C) Seiichi Yoshida (comet@aerith.net). All rights reserved.